Theta_e
335 335 335 335 335 334 333 332 329 326 325 329 334 332 331 335 331 325 328 335 336 334 333 333 333 334 334 333 332 333 333 331 330 330 330 327 324 323 322 322 321 321 319 317 317 315 313 312 309 308 307 305 305 305 305 305 305 305 306 308 311 313 316 318 320 321 321 321 321 321 321 321 320 319 319 319 319 318 317 316 316 315 313 310 308
336 336 334 334 334 334 334 333 331 331 331 330 334 334 332 335 335 330 332 335 335 333 333 333 333 333 334 333 331 332 332 330 330 331 330 329 327 326 325 323 322 322 321 319 317 314 314 313 308 306 306 305 305 305 305 305 305 306 308 311 313 316 318 320 321 322 321 322 322 322 322 322 321 319 319 319 319 319 318 317 317 316 315 315 314
336 335 334 334 334 334 334 334 331 329 331 330 332 333 332 334 335 334 334 336 334 333 333 332 332 333 334 333 330 330 330 330 332 331 330 330 329 328 325 323 323 323 322 320 318 316 315 312 306 305 305 305 305 304 304 305 307 309 312 314 317 319 320 321 322 322 322 322 322 322 322 322 322 320 318 319 320 320 319 319 319 318 318 320 319
335 334 334 333 332 333 334 334 333 330 329 329 331 333 332 333 335 335 335 335 334 333 333 332 332 332 333 333 332 331 330 331 332 331 331 330 328 327 326 325 323 323 322 321 318 316 315 310 306 305 305 304 304 304 305 308 310 313 316 318 320 321 322 322 322 322 322 322 322 322 322 322 323 321 319 318 320 320 320 320 320 320 320 321 322
334 334 334 332 330 331 333 333 333 332 330 328 329 332 332 333 333 335 335 335 334 332 332 332 331 331 333 333 332 331 332 332 331 331 331 331 329 328 328 328 327 326 323 319 316 315 312 308 306 305 304 304 304 307 309 312 315 317 320 321 322 322 323 323 322 321 321 322 322 321 321 322 322 322 320 318 319 320 321 321 321 320 320 320 321
334 334 333 333 332 331 333 333 332 331 331 330 329 329 331 332 333 334 335 335 335 333 332 332 332 331 333 333 331 331 333 332 332 331 331 331 331 331 330 329 330 330 325 318 314 312 310 307 307 305 304 305 307 311 314 316 319 321 322 322 323 324 325 324 322 320 321 322 322 321 320 320 321 322 321 319 319 320 321 321 321 321 321 321 321
335 335 334 334 334 333 333 333 332 331 331 331 330 328 328 331 332 333 334 334 334 334 333 333 333 333 334 333 331 332 333 332 332 331 331 332 331 332 331 330 330 329 327 323 314 309 309 307 306 305 306 309 312 315 318 320 322 322 323 324 324 325 325 324 322 321 321 321 321 321 319 319 319 321 322 319 318 320 321 321 321 321 321 321 322
334 334 333 333 333 333 333 333 332 331 331 331 331 330 328 330 331 332 333 333 333 333 333 333 333 333 334 333 332 333 331 330 331 331 332 332 332 332 332 331 331 329 329 327 317 307 307 307 306 307 310 314 317 319 321 322 323 323 324 325 326 326 325 323 323 323 322 321 321 321 320 318 317 319 321 320 319 319 320 320 321 321 321 321 322
333 332 332 333 333 334 333 333 332 331 330 331 332 331 330 329 330 330 332 333 332 333 333 333 334 334 333 332 332 332 328 326 329 332 332 332 332 332 331 331 331 330 328 328 322 312 307 309 310 312 316 318 320 322 323 323 323 325 326 326 327 326 326 325 324 323 323 322 321 322 321 319 317 318 321 320 318 318 319 320 321 321 321 322 322
334 334 333 333 333 333 333 333 332 330 330 330 330 331 331 330 330 329 331 333 333 333 333 333 333 333 332 332 332 329 325 326 329 331 332 332 332 331 331 331 330 329 327 327 326 318 311 312 315 317 320 321 322 322 323 323 324 326 327 327 327 327 327 327 324 323 324 322 321 323 322 321 317 316 319 320 318 319 320 321 322 322 322 322 323
334 334 334 334 333 333 333 333 333 331 330 329 329 329 330 331 330 330 331 332 332 332 333 333 333 333 332 332 331 327 325 327 329 331 331 331 331 331 331 331 330 328 327 327 328 325 318 315 317 319 321 323 323 323 324 325 326 327 327 327 327 327 327 326 323 322 322 321 321 323 323 322 318 315 318 319 319 321 322 322 322 322 322 322 323
333 333 333 333 334 334 333 332 332 332 331 330 330 329 329 330 330 331 331 331 329 329 331 332 332 333 332 332 331 328 327 328 329 331 331 330 331 332 331 330 330 328 327 328 329 329 325 319 318 319 321 322 322 324 325 325 327 327 327 327 327 327 326 324 323 321 320 320 321 322 323 323 319 316 318 319 320 322 322 321 321 322 323 323 323
332 331 331 333 334 334 333 332 331 331 331 331 331 330 329 328 329 330 330 329 328 328 330 331 332 332 332 333 332 330 329 329 330 331 330 331 331 332 331 330 331 329 329 329 330 330 328 325 322 322 324 324 323 324 325 326 327 327 327 327 327 327 325 324 323 319 317 318 320 321 323 323 320 316 316 318 321 322 321 319 318 320 323 323 323
331 331 331 333 333 333 333 332 331 331 332 332 332 331 329 328 329 330 330 329 328 328 330 331 332 333 332 332 332 331 330 329 330 331 330 331 331 331 331 331 331 330 329 329 329 330 329 328 326 326 327 327 325 325 325 326 326 326 327 327 326 326 325 323 321 317 314 316 318 319 321 322 320 315 310 311 314 315 315 316 316 319 322 323 323
331 330 331 332 333 333 334 333 332 331 331 332 332 331 330 329 330 330 330 329 328 327 329 330 331 332 332 332 332 332 330 330 330 330 330 330 330 331 331 331 331 330 330 329 329 330 329 329 328 328 328 327 326 325 325 326 325 326 327 327 326 326 325 323 320 316 313 314 317 316 318 321 320 315 308 306 306 306 307 310 313 317 320 321 321
331 331 331 332 333 334 334 333 333 332 331 330 331 332 331 330 330 330 329 328 328 327 328 329 330 332 332 331 332 332 331 331 330 330 330 330 330 331 331 331 330 330 330 330 329 329 329 329 328 328 328 327 327 326 326 325 324 325 326 326 326 325 326 324 319 316 312 311 314 315 315 319 319 314 309 306 305 305 304 305 310 316 319 319 319
332 332 333 333 334 334 333 333 333 333 332 330 330 331 332 331 331 330 329 328 327 327 327 329 330 331 331 331 331 331 332 331 331 330 330 330 330 330 331 331 331 330 329 330 330 329 329 329 328 328 328 327 327 327 327 326 325 325 325 326 326 325 325 323 318 315 311 308 309 311 313 316 317 312 308 307 306 304 304 303 305 309 313 314 313
334 334 334 334 334 334 334 333 333 333 333 331 330 330 331 332 331 331 329 328 327 327 327 328 331 332 331 331 330 331 331 331 332 331 331 331 330 330 331 331 331 330 328 329 330 329 329 329 329 328 327 327 327 327 327 327 326 325 325 326 326 325 324 319 316 312 309 306 306 309 313 315 314 311 307 307 305 303 303 302 302 303 304 305 304
334 334 334 334 334 334 334 334 333 333 332 332 331 330 330 331 332 331 329 328 328 327 326 327 330 331 331 331 331 331 331 331 332 331 331 332 331 331 331 331 331 330 329 329 329 329 330 329 329 329 327 327 326 327 328 327 326 325 325 326 325 325 321 315 314 310 306 307 306 309 313 314 312 309 307 305 303 302 302 301 302 301 301 301 301
334 334 334 334 334 334 334 334 333 333 332 332 332 331 330 331 332 331 330 329 328 326 325 327 330 331 330 331 331 331 331 331 331 331 332 332 331 331 331 331 330 330 330 330 329 330 330 329 329 329 328 327 327 327 328 327 326 326 325 325 325 325 319 313 313 309 305 307 306 307 312 312 309 307 305 304 302 302 302 301 302 301 301 301 301
333 333 333 333 334 334 334 334 333 333 332 332 332 332 331 331 332 331 330 329 328 327 326 327 329 330 330 330 330 330 330 330 331 332 332 332 332 331 331 331 331 330 330 330 329 329 330 329 329 329 328 328 328 327 327 327 326 326 326 325 325 323 315 311 312 309 306 307 305 307 311 309 305 305 304 302 302 302 301 301 301 301 301 301 301
333 334 333 332 332 333 333 333 333 332 332 332 332 332 331 331 332 331 331 329 328 328 327 327 328 329 330 331 330 329 329 330 330 331 331 331 331 331 331 331 331 330 329 329 329 329 330 329 328 329 329 329 328 327 328 328 327 326 326 325 322 318 312 310 312 309 306 307 305 307 310 306 303 305 303 302 302 301 301 301 301 301 301 301 301
333 334 334 333 331 330 332 332 332 332 332 332 332 332 331 331 331 331 331 330 329 329 328 326 327 327 328 330 330 329 329 329 329 330 331 331 331 331 331 331 331 331 330 329 329 329 329 329 327 328 329 329 328 328 328 328 327 326 326 324 319 315 311 310 311 309 307 306 305 306 307 304 303 304 302 302 302 301 301 301 301 301 301 301 302
332 332 333 333 329 328 331 332 332 331 331 331 331 331 331 331 331 331 331 330 329 329 328 327 327 326 327 329 330 330 330 329 328 329 330 331 331 330 330 331 331 331 330 329 329 328 329 329 327 328 329 329 329 329 328 327 327 326 326 323 318 313 310 309 310 309 306 306 305 304 304 303 303 303 302 302 302 301 302 301 301 301 301 302 302
330 331 331 331 329 327 328 329 331 331 330 330 330 330 330 331 332 331 331 329 328 328 327 327 327 327 328 329 328 329 330 330 329 330 330 330 331 331 330 330 331 331 331 330 329 329 329 329 328 328 329 330 329 328 328 327 327 327 326 322 317 312 308 308 310 309 306 306 304 303 303 303 303 302 302 302 302 301 302 301 302 301 302 302 302
330 330 330 330 330 328 326 326 328 329 329 329 329 329 330 331 333 332 331 330 329 328 328 327 328 328 328 329 327 326 328 330 331 330 330 330 331 331 330 330 330 330 331 331 329 328 329 330 329 329 329 329 329 328 328 328 327 327 325 320 314 309 306 307 309 307 306 306 304 303 303 303 303 303 302 302 302 302 302 302 302 302 302 302 302
331 330 329 329 329 329 328 326 326 327 329 329 329 330 331 331 333 333 332 331 329 328 328 329 329 328 328 328 325 324 326 329 330 330 329 330 331 331 330 329 330 331 331 331 330 328 329 330 330 329 329 329 328 328 328 328 327 327 325 322 316 309 305 306 308 306 306 306 304 303 303 303 303 303 302 302 302 302 302 302 302 302 302 302 302
330 330 329 329 328 328 328 327 326 327 329 329 329 330 331 332 332 331 330 330 329 328 328 329 329 329 328 327 326 326 327 329 329 329 329 329 330 331 330 329 330 331 331 331 331 330 329 330 330 329 329 329 328 328 328 328 328 327 325 323 319 311 305 305 307 306 306 306 304 303 303 303 303 303 303 302 302 302 302 302 302 302 302 302 302
330 330 330 329 329 328 327 327 327 328 329 329 329 329 330 331 332 331 330 330 330 329 329 329 330 329 327 327 327 328 328 329 329 329 329 329 329 330 330 329 329 330 331 331 331 331 330 330 329 329 329 329 328 328 328 327 327 326 324 323 321 315 305 304 306 306 306 306 304 303 303 303 303 303 303 303 302 302 302 302 302 302 302 303 303
330 330 330 330 329 329 328 327 328 328 328 329 329 329 330 331 331 330 330 330 330 330 330 330 330 329 327 327 327 328 328 329 329 329 329 329 329 330 329 329 329 329 330 330 330 330 330 329 329 329 329 329 328 328 328 327 326 326 324 323 323 316 306 303 305 306 306 306 305 303 303 303 303 303 303 303 303 303 303 302 302 302 303 303 303
329 330 330 330 330 330 330 329 328 328 327 327 327 328 330 330 329 330 330 330 331 331 330 331 330 329 329 328 327 328 328 329 329 328 329 329 329 330 329 330 330 329 329 329 330 329 329 329 329 329 329 329 329 328 328 327 326 326 324 324 323 314 305 304 305 306 307 306 305 303 303 303 303 303 303 303 303 303 303 303 303 303 303 303 304
328 329 330 330 330 330 330 330 329 329 328 328 328 329 330 329 329 329 330 331 332 332 331 331 330 329 329 328 328 328 328 328 328 328 328 328 329 329 329 329 330 330 330 330 330 329 329 329 329 329 329 329 329 329 328 328 326 325 324 323 319 312 305 304 306 306 306 306 305 304 303 303 303 303 303 303 303 303 303 304 304 304 304 305 306
323 326 328 329 330 330 330 330 330 329 329 330 330 330 331 330 329 329 329 330 331 331 332 330 330 329 329 328 328 328 328 327 326 327 327 328 329 329 329 328 328 329 330 330 330 329 329 329 329 329 329 329 329 329 328 327 326 325 325 321 315 311 307 304 306 307 306 306 305 303 303 303 304 304 303 303 303 303 303 304 304 305 306 307 309
320 321 323 325 328 329 329 329 329 329 329 328 329 330 330 331 330 329 329 330 330 330 331 331 330 330 329 329 328 327 327 326 326 327 327 328 329 329 329 328 328 330 330 330 330 329 328 329 329 329 328 328 329 329 328 328 326 325 325 320 314 313 311 306 305 307 306 306 305 303 303 303 303 304 304 303 303 303 303 304 305 306 307 309 311
319 320 320 321 323 326 328 328 328 328 328 327 327 328 329 329 330 330 329 330 330 329 330 330 330 330 329 329 328 327 327 327 327 327 327 328 328 329 329 328 328 330 331 330 329 328 327 328 328 328 329 329 329 328 328 328 326 324 324 320 314 314 314 309 306 307 307 306 305 303 303 303 303 304 304 304 303 303 303 304 305 306 308 310 312
316 318 319 320 320 322 325 327 328 328 328 328 327 328 329 328 329 329 329 329 328 329 329 330 330 330 329 329 329 329 328 328 328 327 327 327 328 328 328 327 327 330 330 329 328 328 328 328 329 329 329 329 329 328 327 327 326 324 322 319 315 317 317 312 307 306 307 307 305 304 303 303 303 304 304 304 304 304 304 304 305 306 307 309 310
314 315 317 318 319 320 322 324 326 327 328 328 329 329 329 328 329 329 329 329 328 329 329 329 329 330 329 329 330 330 330 329 327 327 327 327 327 327 328 327 327 329 330 328 328 329 328 328 329 329 329 329 328 328 327 326 326 325 321 317 316 319 318 314 308 305 307 308 306 304 303 303 303 303 304 304 304 304 304 304 304 305 306 307 308
312 313 314 315 316 318 319 322 324 326 327 327 328 329 329 329 329 329 330 330 329 329 329 330 330 329 329 329 330 330 330 329 328 327 327 328 328 328 328 328 328 330 330 328 327 329 330 329 328 329 329 328 328 327 327 326 325 326 322 317 317 320 318 313 310 308 310 311 308 305 303 303 303 303 304 304 304 304 304 304 304 304 305 306 306
311 312 312 313 314 315 317 319 321 323 325 326 327 328 328 328 328 329 330 329 329 329 330 330 330 329 329 329 329 330 330 329 328 328 329 328 328 329 329 329 328 329 330 328 327 328 329 329 328 328 328 328 328 328 327 326 325 325 323 317 317 320 317 313 311 311 313 314 313 310 307 304 303 303 304 304 304 305 305 304 304 304 304 304 305
310 311 312 312 312 313 314 316 318 321 323 324 326 327 327 327 328 329 329 328 328 328 329 329 329 329 328 328 329 329 330 328 326 328 329 329 328 328 329 328 326 327 329 327 327 328 329 328 328 327 327 327 328 327 326 326 325 324 323 318 315 318 317 313 311 312 313 314 314 312 309 306 304 303 303 304 304 305 305 305 305 305 305 305 304
309 310 311 312 312 312 313 314 316 319 321 322 324 325 326 326 327 328 329 329 328 328 328 329 329 329 328 327 328 328 329 328 326 327 329 329 328 328 328 327 325 327 328 327 327 328 328 328 327 327 326 326 327 327 326 325 325 323 322 319 316 317 317 314 312 312 312 312 312 311 310 307 306 305 304 304 305 305 305 305 306 307 307 306 305
307 309 310 311 311 311 312 313 314 316 319 321 323 324 324 324 325 327 328 329 328 328 328 328 328 327 327 327 327 327 329 329 327 326 328 329 328 328 329 327 326 328 328 327 328 328 328 327 327 327 327 325 326 327 327 326 325 323 322 320 317 317 317 315 313 313 313 313 312 311 310 308 307 306 306 306 306 306 306 306 306 308 308 307 306
306 307 307 308 309 310 311 311 312 313 315 318 320 322 322 323 324 325 327 328 329 328 328 328 328 328 327 327 327 327 328 330 329 328 328 328 328 329 329 327 326 327 328 327 328 329 328 327 327 327 327 326 326 327 327 326 324 322 322 320 318 318 317 315 314 314 313 313 313 313 311 309 308 308 308 308 308 307 307 306 307 308 308 308 308
304 305 305 306 307 308 309 310 310 311 312 314 316 318 320 321 323 324 326 327 328 328 328 329 329 328 327 326 326 325 325 328 329 329 328 327 328 328 329 328 327 328 328 328 328 329 328 327 326 326 326 327 326 325 325 325 323 322 322 320 318 318 318 317 316 316 315 314 313 314 314 312 311 311 311 310 310 309 308 308 308 309 310 310 311
304 304 304 304 304 305 307 308 309 309 310 311 313 315 318 320 322 324 325 326 327 328 328 328 328 327 327 327 327 326 325 325 327 329 328 327 328 328 328 328 329 329 329 329 329 328 328 326 326 325 325 326 325 324 323 323 323 322 321 320 319 318 318 318 317 317 317 316 314 314 315 314 314 313 313 313 312 312 311 310 310 311 312 313 313
303 303 303 302 303 303 305 306 307 307 308 310 311 313 315 318 320 322 323 324 326 327 328 328 327 327 327 327 326 325 324 325 326 328 328 328 328 329 329 329 329 329 328 328 328 328 327 326 326 326 326 325 325 324 324 323 322 321 320 320 320 320 319 319 319 318 318 317 315 314 314 314 315 314 313 314 314 314 314 313 312 312 314 315 316
302 302 302 302 302 302 303 304 305 306 307 309 311 312 313 315 317 319 322 323 325 326 327 328 328 327 327 327 326 324 324 325 326 327 328 327 328 328 329 329 329 329 328 328 327 327 327 326 326 326 326 325 325 324 323 323 322 322 321 320 320 321 321 320 320 319 318 316 315 314 314 314 315 315 314 315 315 315 315 314 313 314 316 317 317
302 302 302 302 302 301 302 302 302 303 305 307 310 311 312 314 316 318 319 321 323 325 326 326 327 327 327 327 326 326 325 326 327 327 326 326 327 328 328 327 327 327 327 327 327 326 326 326 326 326 325 324 324 324 323 323 322 322 321 320 321 322 321 321 320 319 317 315 315 314 313 315 317 317 316 316 317 317 317 316 315 316 316 316 315
302 301 301 301 301 301 301 301 301 301 302 304 308 310 311 312 314 316 318 320 321 323 324 325 325 326 326 326 327 326 326 326 327 327 326 325 326 327 327 326 326 327 327 326 325 325 325 326 326 326 325 325 325 324 323 323 323 323 322 322 322 322 321 320 320 318 317 316 315 314 315 318 319 319 318 318 318 318 318 317 316 315 315 313 312
302 301 300 300 300 300 301 301 300 300 301 302 305 308 310 311 312 314 316 318 320 321 322 323 324 325 326 326 326 326 326 325 325 326 327 326 325 325 326 326 326 326 326 325 325 325 326 326 326 325 325 326 326 324 324 324 324 323 323 322 322 321 320 320 319 318 318 318 315 315 317 319 319 319 319 319 319 318 316 314 313 313 312 311 309
302 301 300 300 300 300 301 301 301 300 300 301 303 305 308 309 310 312 313 314 317 318 320 321 322 323 325 326 326 325 324 324 325 327 327 325 324 325 327 327 326 325 325 325 324 324 324 325 325 325 324 324 324 324 324 324 324 324 323 322 322 321 320 319 319 318 318 318 317 316 317 318 317 317 318 318 318 317 315 312 312 311 310 309 308
Wind_Speed
13 11 12 12 10 9 9 8 6 4 6 8 9 13 10 10 11 11 10 8 9 10 9 11 11 9 8 9 11 10 10 9 5 9 11 7 3 4 5 5 5 5 5 5 6 6 5 5 4 3 1 1 2 2 2 3 4 5 7 8 10 10 10 10 10 10 10 9 9 9 9 9 9 10 10 11 11 11 12 12 13 14 16 17 17
14 13 13 13 12 11 11 11 10 8 7 8 11 15 13 13 13 12 10 9 10 11 12 13 11 10 10 10 12 12 11 8 4 8 11 11 9 8 6 5 6 5 4 4 4 5 5 4 2 1 1 2 2 2 3 4 5 6 7 9 10 10 10 10 9 9 9 8 8 8 8 8 8 9 10 10 11 11 11 12 13 15 16 17 18
14 13 13 14 13 12 13 12 12 13 11 10 13 15 15 14 14 14 12 12 13 13 14 13 10 11 11 11 12 12 11 9 8 9 10 12 11 8 5 6 6 4 4 4 4 4 4 2 2 2 2 3 3 3 4 6 7 7 8 9 9 9 9 9 8 8 8 7 7 7 6 7 8 8 9 9 11 11 11 12 13 15 15 16 17
14 13 13 14 13 12 13 12 12 14 14 13 14 15 16 17 15 15 15 16 17 16 15 12 12 13 11 11 11 9 11 12 12 9 8 12 11 6 4 5 4 4 4 4 4 3 3 1 3 3 3 4 5 6 7 8 8 9 9 9 9 9 8 8 8 8 8 8 7 7 6 7 8 8 8 9 11 11 12 13 13 14 15 15 16
15 14 13 13 13 12 12 12 11 14 15 15 15 16 17 19 17 16 16 18 19 18 17 14 14 14 13 15 12 8 9 11 13 13 11 11 11 8 5 3 2 3 4 3 3 3 2 1 4 4 5 6 7 8 9 9 9 9 9 8 8 8 9 9 9 9 9 9 8 8 7 7 8 8 8 9 11 12 13 13 13 14 14 14 15
16 15 13 13 13 12 11 12 12 14 15 15 17 17 18 19 19 18 19 19 18 18 17 15 16 15 16 16 10 9 12 11 11 13 12 10 9 9 8 4 1 3 3 2 2 2 2 3 5 5 6 8 9 10 10 10 9 9 8 8 8 9 9 9 9 10 10 9 9 9 8 8 8 8 8 9 10 12 12 13 13 13 13 13 13
12 12 12 12 13 13 12 12 13 14 15 15 17 17 18 17 18 19 20 21 19 18 17 16 17 16 16 14 10 13 15 12 12 12 10 10 9 8 8 6 4 3 3 2 2 2 3 4 5 6 8 9 10 10 10 9 9 8 8 8 8 8 8 8 8 9 10 9 9 9 9 9 8 7 8 9 10 12 12 12 12 12 12 12 13
7 8 9 9 12 14 14 14 14 15 15 16 18 18 18 18 19 19 20 22 21 20 19 19 19 17 15 13 13 16 16 13 13 10 8 9 8 8 8 6 5 4 4 3 1 1 3 4 5 7 8 10 10 10 10 9 8 8 8 8 7 7 7 7 7 7 8 8 8 8 9 9 9 8 8 9 10 11 11 11 12 12 11 12 13
7 9 9 9 12 14 17 17 16 17 16 17 18 18 18 19 20 20 21 22 21 22 22 20 20 18 16 15 16 18 15 13 11 9 9 9 8 9 9 6 4 4 6 5 3 2 4 6 6 7 8 8 8 8 9 8 8 7 7 7 6 6 6 5 5 5 6 7 7 7 7 8 8 8 8 9 11 11 11 11 11 11 12 13 14
7 8 10 10 11 13 17 19 19 18 18 18 18 18 18 19 21 21 21 22 21 22 22 22 23 21 19 18 18 17 14 12 12 11 10 10 10 10 9 8 7 6 7 10 7 4 4 6 7 7 7 7 7 7 7 7 6 6 5 5 5 5 5 5 4 3 3 4 5 6 6 7 7 7 8 9 11 10 10 10 10 11 12 13 14
9 9 10 10 10 12 14 17 20 20 19 19 19 19 19 20 22 22 23 23 24 22 22 23 23 21 21 19 18 15 14 13 13 12 12 12 12 11 11 10 9 10 12 13 9 5 5 5 6 7 7 7 6 6 6 6 5 5 4 4 4 4 5 6 4 3 2 3 4 5 5 6 6 7 7 9 10 10 9 9 9 11 12 12 13
13 11 11 12 12 14 15 16 19 21 21 21 20 19 20 21 23 23 24 25 25 23 22 22 21 20 19 18 16 15 14 14 14 14 14 14 14 12 12 12 10 12 14 14 10 7 7 6 7 7 7 7 7 6 6 6 6 6 5 5 5 5 6 6 5 4 4 4 5 5 5 6 6 7 8 9 10 9 9 8 9 11 11 12 12
15 14 15 16 16 16 17 17 18 22 23 23 21 20 20 21 23 25 25 26 25 23 22 21 20 19 17 15 15 14 14 15 15 15 15 15 15 13 13 13 13 12 13 13 11 9 8 8 8 8 8 8 7 8 8 7 7 7 7 6 5 6 7 7 6 6 6 6 6 5 6 6 6 7 8 9 9 9 8 7 8 10 11 11 10
17 17 17 18 18 18 18 19 20 22 24 24 24 23 23 23 24 25 26 26 24 22 22 22 21 20 18 16 15 15 15 16 16 17 16 16 16 14 14 15 14 12 12 13 12 10 8 8 9 8 9 8 8 9 9 9 8 8 8 7 6 8 8 7 7 7 7 7 7 6 7 7 6 6 7 9 10 9 8 7 8 9 10 11 9
17 17 18 19 19 19 19 19 21 22 23 25 26 26 25 24 24 25 25 25 24 23 24 25 23 20 18 17 15 15 16 17 18 18 17 17 17 16 15 16 15 13 12 12 13 11 10 10 9 9 9 8 8 9 9 9 8 7 8 9 9 9 9 8 8 8 6 7 8 8 8 8 6 6 7 9 10 8 8 7 7 8 9 9 7
16 17 19 20 20 20 19 20 22 23 23 25 27 27 26 25 25 25 25 25 25 24 24 27 26 21 18 17 15 15 15 16 19 19 18 18 19 17 17 16 15 15 14 12 13 12 10 11 11 10 10 9 9 10 10 9 9 9 9 10 10 11 11 9 9 8 6 7 8 9 10 9 7 7 7 8 8 7 7 7 7 8 8 7 6
15 17 18 18 19 20 20 21 22 23 24 25 26 27 27 27 26 25 25 25 24 24 25 27 27 23 20 18 15 14 15 13 13 17 18 18 19 19 19 17 16 16 16 14 13 12 12 12 12 11 11 10 11 11 10 10 10 10 11 11 12 13 12 11 9 8 6 7 8 9 10 9 8 8 8 7 6 6 6 7 7 7 7 7 6
15 17 18 18 20 21 21 22 22 23 24 25 27 28 29 28 27 26 25 25 24 24 26 26 27 26 24 22 18 16 15 13 11 13 15 18 19 20 19 17 16 17 18 17 15 14 14 13 13 13 12 12 12 11 10 10 10 10 11 12 13 14 12 10 10 8 7 7 8 9 10 10 9 8 7 6 6 6 6 6 7 7 7 7 6
17 17 18 19 20 21 22 23 23 24 24 26 27 28 29 28 27 26 25 25 25 25 26 25 27 29 27 26 23 18 14 13 14 12 13 17 19 20 19 18 18 17 18 19 17 15 15 14 14 14 13 13 13 12 12 11 10 11 12 13 15 15 12 10 10 9 8 9 8 9 11 10 10 9 7 6 6 6 6 6 6 7 7 7 7
17 18 18 19 19 20 22 24 25 25 25 26 27 27 29 30 29 28 27 27 26 25 25 25 27 28 28 28 25 20 16 13 13 13 13 15 18 21 20 19 19 18 17 18 17 17 16 15 14 14 13 13 13 13 13 12 11 12 14 14 16 15 12 10 11 10 9 9 9 10 11 11 10 9 8 7 7 7 7 7 7 7 7 8 8
18 19 19 19 20 21 23 25 25 26 26 27 27 27 28 30 30 30 29 26 25 25 24 25 26 26 25 27 26 23 21 17 14 15 15 14 15 19 21 20 19 19 19 18 18 19 18 16 16 14 13 13 12 13 14 12 12 13 15 16 16 14 12 12 12 10 9 9 9 10 12 11 10 10 9 8 8 8 8 8 8 8 9 9 9
17 18 20 20 21 22 23 24 24 24 24 25 26 27 29 30 29 30 30 27 25 25 25 25 26 24 22 24 25 25 26 22 18 17 18 16 13 16 19 21 21 20 20 20 21 21 18 16 16 14 14 13 12 13 14 13 13 14 16 16 15 13 12 12 12 11 10 9 10 11 12 11 10 10 10 9 9 9 9 10 10 10 10 11 11
18 19 20 20 20 22 20 19 20 21 21 22 24 25 27 28 29 30 31 29 27 26 26 25 25 25 24 24 24 25 27 26 23 20 20 18 16 16 18 20 21 20 20 21 21 22 19 17 16 15 15 14 14 14 14 13 14 15 16 16 14 13 12 12 13 12 10 10 10 11 12 11 11 11 10 10 10 10 10 11 11 11 12 13 13
19 20 21 20 20 21 19 17 18 19 20 21 22 22 23 25 28 30 30 30 29 27 27 27 28 29 28 26 25 24 24 26 25 23 22 20 18 18 18 19 21 19 19 20 21 22 20 18 17 16 16 15 15 16 15 15 16 16 16 15 13 12 12 12 13 13 11 12 12 12 12 12 11 11 11 11 11 11 12 12 13 13 14 14 13
20 20 20 20 20 20 20 19 18 19 19 21 21 21 21 23 26 27 27 28 29 28 28 28 29 30 29 29 28 26 24 24 26 25 24 22 20 18 17 19 22 20 18 19 21 23 21 18 18 17 17 16 15 17 18 17 17 17 16 14 13 13 12 13 15 14 13 13 14 13 12 12 12 12 11 11 11 12 12 13 13 14 14 13 12
20 19 18 19 20 20 20 21 20 20 19 20 22 21 20 22 25 25 25 27 28 28 29 28 29 29 28 29 29 29 26 26 27 26 25 24 22 20 17 18 21 20 17 17 20 23 22 19 18 18 18 17 16 17 19 18 17 18 16 13 13 13 13 14 16 15 14 14 15 14 14 13 13 12 12 12 12 12 13 13 14 14 13 12 11
19 19 19 20 20 19 20 21 22 22 21 20 21 21 20 21 25 26 26 26 27 27 28 29 30 29 28 29 29 29 28 27 27 26 26 25 23 21 19 18 19 18 17 16 19 23 23 19 19 20 20 19 20 19 18 18 18 18 17 15 13 13 14 16 17 16 15 15 16 15 14 14 13 13 13 12 12 13 13 14 14 13 12 11 10
18 19 18 18 20 20 20 21 22 23 22 21 22 22 21 22 24 27 27 26 26 26 27 30 31 30 29 29 29 29 29 28 27 26 26 26 24 23 20 19 19 19 18 17 19 21 22 21 21 22 21 21 23 22 18 18 18 17 17 16 15 14 15 17 18 17 16 16 17 17 16 15 14 13 13 13 14 14 14 13 13 12 11 11 10
17 17 17 17 18 19 21 22 22 23 23 22 23 23 23 24 26 27 27 26 27 27 27 29 31 32 31 30 30 30 29 29 28 27 27 26 25 24 22 20 21 21 21 20 21 22 23 25 24 23 24 23 23 22 20 19 19 17 17 17 16 16 16 17 19 18 18 18 18 18 17 16 15 15 15 14 14 14 14 13 13 12 11 10 10
16 16 16 17 18 19 20 22 22 23 22 22 23 23 23 26 27 27 27 27 28 29 28 28 30 31 30 30 30 30 29 29 28 27 27 26 24 23 22 21 20 21 21 21 21 20 23 26 24 23 25 24 23 24 23 21 20 20 19 18 17 17 17 18 19 19 18 19 19 19 18 17 16 16 16 15 15 15 14 13 12 12 11 11 10
18 17 16 16 18 19 20 22 22 23 23 21 22 23 23 24 26 25 25 25 27 29 28 28 30 30 30 29 29 29 29 28 28 28 27 26 24 24 23 22 22 22 20 20 20 19 21 24 23 23 25 26 26 27 25 22 20 20 20 19 18 18 18 19 19 19 19 19 20 20 19 18 17 16 16 16 15 15 14 13 12 12 11 11 11
19 19 18 16 17 19 21 22 22 24 24 21 21 23 22 21 23 24 23 24 27 29 28 28 30 30 30 29 29 29 29 29 28 28 28 27 26 26 26 24 24 22 19 20 20 20 22 25 25 25 24 25 27 27 26 22 18 18 17 17 18 20 20 20 20 19 19 19 21 21 20 19 18 17 17 16 16 15 14 13 13 12 12 12 12
19 20 20 19 19 19 21 22 22 24 25 24 23 23 22 21 21 23 23 25 27 28 28 28 29 29 29 29 29 29 29 30 29 28 28 27 26 27 27 26 24 22 22 23 22 20 22 25 27 26 24 25 27 26 26 24 21 20 18 17 19 21 21 21 21 20 19 19 21 21 20 19 18 18 17 17 16 16 15 14 14 13 13 13 13
21 20 20 21 21 20 20 22 23 24 25 26 24 23 23 23 22 23 24 26 27 28 28 28 29 29 29 28 29 30 30 30 30 29 28 28 27 27 28 28 26 25 26 27 25 22 21 22 26 27 25 25 26 25 26 26 24 23 21 20 21 21 20 21 21 20 19 19 20 21 21 20 19 18 18 17 17 16 16 15 15 14 14 13 13
22 22 21 20 19 19 19 20 22 22 23 25 24 24 25 24 24 24 24 25 26 27 28 28 27 28 28 28 28 29 29 30 30 29 29 29 29 28 29 30 29 27 27 28 27 26 23 21 23 25 26 26 25 26 28 26 24 24 23 24 24 22 20 20 20 20 19 19 19 21 21 20 19 19 18 18 17 17 17 16 15 15 14 14 13
22 22 22 22 21 18 18 19 20 20 21 22 24 24 24 24 25 25 25 25 26 25 27 29 28 26 27 28 28 28 29 30 29 28 29 30 31 31 31 30 30 29 28 27 27 26 25 23 23 26 28 28 26 27 28 27 25 24 23 24 24 22 21 20 20 20 19 18 19 20 21 20 20 19 18 18 18 17 17 16 16 15 14 14 14
24 22 22 24 24 21 18 18 20 20 20 23 24 24 24 24 25 25 24 25 26 26 27 29 29 29 30 30 28 28 28 29 28 28 29 30 31 32 31 30 30 30 29 29 27 25 25 24 24 26 29 28 28 29 28 28 28 25 24 24 21 20 20 20 19 19 19 19 19 20 20 20 20 19 19 18 17 17 17 17 16 15 15 14 14
27 25 24 24 26 25 21 18 19 19 20 22 23 23 23 24 25 26 25 24 25 25 27 29 28 29 31 32 30 28 28 28 28 28 29 30 31 31 30 29 28 27 27 28 28 26 25 25 25 27 28 29 29 30 30 30 28 23 23 24 21 18 19 19 18 18 17 17 18 19 20 21 21 20 19 18 18 17 17 17 16 16 15 15 15
28 28 27 26 25 26 24 20 19 19 19 20 21 21 21 21 21 23 25 26 25 24 26 27 26 26 28 30 30 29 28 27 27 28 30 31 31 32 31 29 28 27 27 29 29 28 26 25 25 23 24 27 30 31 30 30 27 22 22 25 25 21 19 20 21 20 18 17 17 18 18 19 20 20 19 19 18 18 18 17 17 17 16 16 16
29 29 28 28 27 26 25 22 20 20 20 21 21 22 22 22 21 20 21 23 25 24 24 24 23 24 26 27 29 30 29 27 26 29 32 32 31 31 30 29 28 27 28 30 31 30 27 26 25 22 19 20 25 29 29 29 29 26 23 24 27 26 22 22 24 23 20 20 20 18 18 18 20 21 21 21 20 19 18 18 18 17 17 17 17
30 30 29 28 28 27 25 22 20 19 20 23 24 24 24 24 23 22 20 21 23 25 26 26 25 25 26 26 27 29 29 27 26 28 31 32 31 30 29 29 29 27 28 30 31 30 28 26 26 26 23 20 22 26 27 29 32 30 26 24 26 26 24 24 25 24 22 21 21 20 20 20 21 21 22 22 21 20 20 20 19 18 18 17 16
31 32 31 31 31 30 28 25 22 19 19 23 25 26 27 27 25 25 24 23 24 25 27 27 26 26 26 25 26 28 29 28 27 28 30 32 31 29 29 30 30 28 29 29 29 28 27 28 27 28 28 25 24 25 28 30 30 29 28 28 26 25 25 26 26 24 23 21 20 19 19 20 21 21 21 21 21 21 21 20 19 17 17 16 16
31 32 33 34 35 35 32 30 26 21 20 22 25 27 28 29 28 27 26 25 25 26 27 26 26 24 22 23 24 26 27 28 28 29 30 31 30 28 29 30 30 29 29 29 28 25 25 29 29 27 29 29 28 28 28 28 28 28 29 30 28 26 26 27 25 24 23 22 20 18 17 17 19 19 19 19 19 20 20 18 17 17 16 17 17
31 32 32 33 36 38 37 35 31 27 24 23 24 26 27 28 28 27 26 26 27 28 27 25 25 25 23 23 23 23 24 27 29 30 31 31 29 28 30 30 30 30 29 29 28 26 24 27 28 27 27 28 29 28 25 25 28 29 30 31 29 27 27 27 26 25 24 23 21 18 14 14 15 16 15 16 17 18 18 17 18 18 18 18 19
30 32 32 32 34 38 39 38 36 33 30 27 25 25 26 27 27 27 25 25 26 28 28 25 24 25 25 25 25 25 24 25 27 30 31 30 28 29 31 32 31 31 29 28 28 26 24 25 27 27 25 25 28 27 24 25 28 28 30 30 27 26 27 27 28 26 23 23 23 20 16 13 14 17 17 16 16 16 16 18 19 20 20 19 18
29 31 32 32 33 35 38 39 38 37 36 33 29 25 25 26 27 27 26 25 23 25 28 27 25 25 25 24 25 24 24 25 26 28 29 28 28 30 32 31 31 31 29 27 25 25 23 23 25 26 24 22 25 27 26 28 29 27 28 28 25 25 27 27 27 26 23 23 23 21 19 16 16 22 23 19 17 16 16 18 20 20 19 18 17
31 31 31 31 31 33 36 38 38 39 39 37 34 29 25 24 25 27 28 27 25 24 27 27 26 26 25 23 24 24 25 27 27 26 27 27 28 30 30 28 27 28 27 25 23 23 23 22 23 25 23 21 23 26 28 30 30 28 29 30 27 26 27 28 26 22 22 26 25 22 21 18 19 25 25 20 18 16 14 18 21 20 18 16 15
33 32 30 31 31 32 35 37 38 39 40 39 37 36 31 25 22 23 25 26 26 26 27 26 25 26 25 24 25 24 24 27 28 26 25 25 26 28 28 27 25 25 26 25 24 23 22 23 23 21 21 21 22 26 30 33 32 30 30 32 31 27 26 27 25 21 24 28 26 24 24 20 18 22 23 18 15 15 16 20 21 17 14 11 10
34 34 33 31 31 31 33 35 36 37 39 40 38 38 36 30 22 19 19 20 22 24 26 26 26 26 24 24 26 26 25 25 26 27 25 24 26 26 25 26 27 27 27 26 25 24 23 23 23 20 20 21 23 25 29 33 34 32 30 31 31 27 26 27 25 23 25 28 27 26 24 19 15 17 18 15 11 12 15 15 12 9 6 6 8
32 34 34 32 31 32 31 31 32 34 37 39 39 38 38 35 28 20 16 15 16 18 20 21 23 24 24 25 27 27 26 25 25 27 27 25 25 26 26 26 26 26 27 26 25 25 25 24 23 21 21 23 24 25 26 28 31 31 31 31 29 26 26 28 28 26 26 26 29 29 22 14 11 13 14 13 11 9 7 5 4 4 5 6 8
30 32 33 32 32 31 30 30 31 34 36 38 39 39 39 38 34 28 21 16 13 11 11 12 15 18 22 26 27 26 26 24 23 25 26 24 25 28 29 28 24 23 24 23 21 22 23 22 22 20 19 22 23 22 21 24 27 30 32 33 31 29 27 25 25 28 28 27 28 29 22 14 12 12 12 13 13 11 6 4 4 5 4 5 6
Wind_Direction
220 220 222 218 211 207 197 204 220 226 218 179 200 242 228 217 223 211 207 189 193 210 214 215 206 199 200 193 180 171 177 189 236 280 287 287 259 263 267 263 263 260 263 269 276 276 269 264 256 250 231 149 120 111 99 99 102 103 103 103 101 99 95 92 88 85 82 79 77 76 74 75 76 77 77 76 79 83 85 83 81 81 83 84 83
217 216 219 220 213 208 202 200 192 190 218 194 204 244 238 218 222 218 217 212 208 210 217 221 214 203 200 208 198 184 181 170 191 248 271 284 286 287 273 257 261 267 278 284 287 280 273 269 240 187 151 136 138 130 119 115 111 109 109 107 104 100 97 93 89 85 81 78 76 76 75 76 79 80 81 81 83 87 89 88 87 87 87 85 84
218 217 217 220 215 209 208 207 197 190 211 215 212 238 247 233 222 218 216 219 219 211 220 225 215 211 209 218 213 191 179 162 176 225 258 269 277 289 266 251 257 265 276 281 284 275 275 262 181 177 171 158 152 138 129 126 120 117 113 108 105 102 98 92 87 82 78 77 76 79 82 84 85 85 86 86 86 89 91 92 93 94 91 86 84
222 223 219 218 215 216 216 214 208 197 206 218 212 222 242 245 229 221 220 221 219 208 214 222 217 219 215 218 216 192 182 175 180 202 234 255 270 283 253 250 262 274 276 280 288 276 284 243 184 195 181 163 150 140 134 129 124 120 115 110 108 102 96 90 84 80 78 79 80 83 88 92 94 91 90 90 90 92 95 96 96 96 94 89 86
224 227 226 221 218 223 224 224 219 202 202 211 211 209 227 245 238 225 222 224 223 212 210 214 218 221 217 221 216 191 192 194 193 193 204 240 265 278 269 252 271 312 297 282 288 279 283 217 200 200 178 160 147 141 136 131 128 122 118 114 108 102 97 89 82 80 79 80 82 85 88 93 96 97 97 96 95 96 99 100 100 98 95 92 89
219 225 227 220 219 221 222 226 224 216 213 211 213 211 215 233 240 229 222 226 227 220 211 209 218 218 217 224 215 198 202 204 209 205 203 216 240 265 277 279 290 322 315 287 289 276 245 214 203 193 172 157 147 143 138 134 131 126 122 117 110 104 98 89 84 81 80 82 84 85 85 87 93 101 104 102 102 102 103 104 104 102 100 99 94
213 225 229 221 220 223 224 227 225 225 226 220 219 223 221 223 235 235 225 223 225 225 218 210 217 218 219 222 211 213 213 207 218 219 207 204 213 236 259 287 289 297 323 298 292 271 222 207 197 184 168 157 150 145 142 140 137 132 126 120 113 106 100 93 91 87 83 83 86 87 86 84 88 102 111 109 109 109 109 108 107 105 104 101 96
205 224 236 232 230 231 232 232 234 232 229 231 229 230 228 220 226 235 230 225 224 225 222 217 219 219 221 220 213 223 225 219 225 223 208 206 205 213 232 266 279 293 308 282 296 275 199 185 184 177 167 159 154 150 148 147 145 138 130 124 118 111 107 100 94 91 87 85 90 96 94 87 85 101 117 117 115 116 115 112 108 106 103 99 97
210 222 231 227 225 229 231 231 236 238 233 237 236 231 230 225 223 227 228 231 231 227 224 222 221 218 219 220 219 226 230 229 229 221 213 215 206 209 224 231 231 264 279 267 275 256 195 168 173 173 168 166 162 161 158 157 152 144 138 134 130 123 120 113 97 90 90 90 97 104 101 92 83 95 118 125 120 116 112 109 107 107 107 104 101
233 232 234 228 224 226 230 229 234 240 239 237 235 233 235 233 227 224 224 230 235 230 226 225 222 219 220 221 225 228 228 228 228 222 218 220 214 210 221 223 209 201 229 252 253 232 199 170 178 179 172 176 175 173 168 163 160 157 155 151 147 135 130 137 127 109 104 100 107 113 110 98 82 91 117 128 120 111 105 105 106 108 109 108 107
267 257 249 244 241 239 237 233 236 241 242 239 237 237 238 236 231 226 223 228 236 237 236 234 226 220 218 219 227 229 224 225 227 227 224 227 224 214 219 223 211 197 213 237 235 215 213 192 191 190 180 183 184 188 186 181 185 187 185 178 168 157 148 147 142 139 145 135 130 130 125 107 85 91 116 127 121 113 111 111 112 111 109 110 112
283 278 272 265 254 251 252 244 240 240 242 243 242 241 241 239 237 233 229 231 237 240 243 245 238 228 217 214 226 227 224 228 228 227 225 228 227 218 224 226 212 208 218 229 227 223 224 207 202 202 194 195 200 213 219 213 212 209 202 196 187 180 167 156 155 165 162 154 150 148 142 120 95 97 114 126 125 123 125 125 123 118 111 113 118
285 282 279 275 263 257 257 254 248 243 244 246 243 243 242 242 242 239 237 238 239 237 236 242 242 235 221 212 222 226 226 230 230 230 228 228 227 221 227 226 211 210 218 221 225 230 225 212 213 216 211 209 217 227 228 222 217 213 204 197 190 181 171 163 167 170 159 153 156 156 150 133 113 111 121 132 136 136 140 142 136 127 120 120 128
282 279 278 277 272 268 264 260 257 251 248 246 243 244 244 243 242 239 239 241 242 236 230 232 232 228 221 215 220 226 229 231 229 229 230 229 229 225 224 221 211 210 215 217 219 220 217 213 217 226 225 219 224 230 228 224 218 214 206 199 193 184 178 176 172 167 155 151 157 160 156 150 135 126 133 139 137 136 141 145 147 146 142 139 138
281 278 278 278 276 275 272 266 260 255 250 247 246 245 243 242 240 238 240 242 243 238 231 231 229 225 220 215 214 223 228 230 230 228 231 232 230 228 223 218 212 210 214 218 221 219 216 217 218 226 229 222 221 224 224 224 219 212 206 201 195 186 181 182 175 168 160 156 161 163 161 162 152 146 147 135 125 123 128 133 141 150 152 148 142
286 283 280 281 278 274 273 270 263 257 253 250 249 247 243 240 239 239 240 242 243 241 234 232 229 223 218 212 211 221 225 228 233 230 230 230 227 227 224 219 217 215 215 217 224 222 218 222 222 223 226 223 223 223 219 217 213 205 203 201 195 186 181 183 182 176 169 164 164 165 166 168 166 163 151 127 117 118 119 117 118 125 133 135 133
289 286 284 283 281 277 276 273 266 260 256 253 250 249 246 239 235 238 240 241 245 246 240 233 229 224 218 213 210 216 220 222 231 230 228 227 225 224 224 223 224 224 218 214 219 219 212 217 223 227 229 226 228 227 218 212 210 208 206 202 194 187 182 184 186 181 174 169 166 166 167 170 172 163 143 124 119 119 115 111 108 112 120 125 128
291 290 288 285 283 280 278 275 270 264 260 257 253 250 247 240 233 235 238 240 245 247 243 234 229 227 222 220 220 220 220 213 215 222 224 225 225 224 225 226 226 225 219 213 216 218 211 211 217 226 229 225 227 229 223 216 215 212 208 201 193 188 184 185 186 182 176 171 166 166 169 172 171 159 143 134 129 124 120 118 117 120 123 127 130
293 291 289 287 284 279 276 275 273 270 266 261 257 253 250 246 239 237 235 235 239 244 244 237 231 229 226 225 224 222 221 214 212 217 220 222 223 222 224 224 222 220 216 214 214 212 212 214 215 221 230 228 224 226 226 223 220 211 204 199 193 188 187 186 186 183 176 174 170 169 173 174 168 160 155 148 140 134 132 130 132 134 134 135 136
293 292 290 287 282 279 278 277 276 276 274 267 262 257 252 248 243 238 233 232 235 241 244 239 233 231 229 228 223 218 224 222 214 214 216 220 220 219 219 221 222 219 213 214 211 207 211 217 217 220 228 228 219 219 221 219 216 208 198 195 190 189 193 191 187 185 180 178 177 174 177 175 169 167 165 157 150 147 145 146 147 146 143 142 142
296 296 294 291 283 280 280 280 280 281 281 276 269 262 254 250 245 239 234 233 235 238 241 237 233 233 232 232 228 222 227 228 218 214 213 215 216 218 218 217 219 218 213 213 209 207 209 213 218 219 221 221 213 212 217 214 209 203 194 190 189 193 200 196 188 187 186 184 183 180 178 177 174 173 169 162 158 155 154 154 152 150 147 144 143
293 293 292 292 288 284 281 281 283 284 283 279 272 266 259 253 247 240 234 234 235 235 236 234 233 234 233 234 233 228 227 225 222 220 216 216 218 220 219 216 215 213 211 212 209 209 210 210 217 216 212 216 212 209 215 213 205 200 193 189 192 199 203 197 189 188 188 187 186 182 178 179 181 178 171 166 162 160 160 157 153 151 147 144 143
291 290 290 292 292 290 285 280 283 285 283 278 272 269 263 254 248 242 234 233 234 233 234 232 231 235 234 235 239 236 230 226 225 224 222 223 224 224 223 220 220 218 214 212 208 210 211 209 214 213 206 211 214 210 212 211 202 196 194 194 199 203 202 199 192 190 191 189 187 181 179 183 184 179 172 168 165 164 163 158 155 153 149 148 146
295 293 291 292 297 295 289 284 285 286 286 284 277 271 265 255 247 242 235 232 234 234 235 233 232 236 237 236 240 239 235 231 229 228 228 229 229 229 226 219 218 221 220 212 205 207 210 206 207 211 210 211 216 215 209 206 201 195 196 201 206 207 204 204 196 193 194 190 187 184 184 187 183 178 175 172 170 168 166 162 158 156 154 153 151
298 292 289 291 298 298 293 290 288 285 288 289 282 274 267 253 241 238 234 233 235 236 239 239 237 237 238 237 237 235 235 234 230 230 230 229 228 229 228 220 214 210 214 214 205 204 209 209 204 207 212 212 215 215 209 207 203 197 199 202 207 210 207 205 200 196 196 191 188 187 188 188 183 180 179 177 175 173 171 166 162 162 161 160 159
302 295 292 294 297 298 297 295 291 287 286 288 282 276 267 248 236 236 236 235 236 237 240 242 241 239 237 236 236 235 236 233 230 231 229 223 222 224 221 221 217 206 205 212 207 204 207 206 201 203 209 209 213 213 208 209 205 198 203 205 206 211 208 205 202 199 199 194 190 190 189 189 187 184 183 182 181 178 175 171 168 168 169 168 168
308 302 297 298 298 297 299 298 295 289 285 282 277 270 264 247 235 237 239 237 237 239 240 242 242 239 235 236 237 238 237 233 230 231 228 221 219 221 217 217 218 207 204 208 206 205 204 203 204 207 207 203 209 215 209 208 207 204 210 213 210 212 208 204 203 201 201 197 193 192 191 191 190 188 186 185 184 183 180 177 175 175 175 175 175
309 309 305 304 301 297 297 298 298 294 288 284 279 271 263 251 241 239 240 239 238 241 242 242 240 237 234 235 237 238 237 234 234 233 229 223 220 218 215 215 214 204 197 200 206 206 201 199 204 209 207 202 207 216 214 210 210 210 213 215 213 214 210 204 204 203 203 200 196 194 193 193 192 190 189 187 187 187 186 183 181 182 181 181 181
308 310 310 309 305 300 298 298 299 296 291 289 288 283 269 256 249 246 245 245 244 244 243 239 237 235 233 232 235 238 235 232 233 231 227 225 222 219 214 213 212 205 198 199 207 210 203 199 202 204 204 203 205 213 215 213 213 212 214 217 216 215 211 205 204 204 204 202 199 197 195 195 194 192 191 190 190 190 189 188 188 188 188 187 186
307 308 308 309 306 304 302 300 298 295 294 295 294 291 278 261 254 250 248 249 248 248 244 237 233 233 232 231 234 236 235 232 232 230 228 227 225 221 216 214 214 214 211 205 207 213 207 201 200 201 204 202 201 208 216 218 219 218 220 222 219 216 211 206 205 206 206 204 201 199 198 197 195 194 193 191 192 191 191 192 192 193 193 192 190
301 305 308 310 308 305 304 302 298 296 298 299 297 296 288 272 263 258 253 251 250 251 248 238 232 232 231 232 235 235 234 234 234 231 229 227 223 217 216 219 221 221 220 211 206 209 208 202 199 204 210 206 201 207 216 221 221 219 223 225 218 213 211 207 205 207 208 207 204 201 199 199 197 196 195 194 194 193 192 193 193 195 196 195 194
298 297 299 305 309 309 306 303 302 300 300 297 292 294 292 279 273 272 266 258 253 253 251 241 234 234 234 235 237 236 234 234 234 232 229 226 223 219 217 222 226 226 224 216 207 204 206 204 202 205 211 208 204 208 213 214 211 211 220 224 216 211 211 208 205 207 210 209 207 204 201 200 200 198 197 196 195 195 193 193 194 196 197 198 197
309 300 293 292 297 306 311 308 306 306 304 299 292 290 291 284 278 278 273 264 257 253 250 244 238 236 237 238 239 236 234 233 233 233 231 226 224 224 223 224 226 227 225 221 215 208 204 204 204 207 209 207 207 210 211 209 206 207 215 222 217 211 209 208 207 207 210 209 208 207 204 203 202 201 200 199 198 197 196 195 196 197 198 200 201
325 317 307 296 288 293 305 309 307 306 306 305 299 294 292 288 283 281 276 269 263 255 248 244 240 238 238 239 238 235 234 235 235 235 232 227 225 225 225 225 224 222 223 223 223 219 211 206 208 209 207 205 206 208 207 208 208 207 211 217 217 214 210 209 210 209 210 211 210 208 207 206 205 203 202 201 200 199 199 199 200 201 202 203 205
332 329 324 314 298 288 294 306 308 305 305 305 302 296 293 290 286 282 276 273 270 260 250 244 241 238 237 238 238 236 234 234 235 236 233 228 226 224 223 224 224 222 223 225 225 223 219 212 209 209 205 202 205 206 205 209 208 205 211 217 216 217 217 215 214 212 211 212 212 211 209 209 208 206 205 204 203 203 203 204 205 205 206 207 209
336 332 329 323 313 299 290 299 307 306 303 303 300 296 294 292 287 281 276 275 275 268 258 251 247 242 240 241 240 238 236 236 237 237 234 230 228 226 226 227 228 226 224 224 224 224 222 215 209 208 206 204 206 205 204 208 206 202 212 218 215 218 225 224 216 212 214 214 214 214 213 212 212 210 208 207 207 207 207 208 210 210 210 213 214
341 336 331 325 321 314 298 292 300 303 300 298 299 299 298 294 289 283 279 276 276 273 264 256 251 246 243 244 242 240 240 241 240 239 236 232 230 230 230 230 230 229 225 224 225 225 223 219 213 211 211 210 209 205 201 204 205 202 205 211 215 221 225 225 219 211 211 214 214 215 215 215 215 214 213 212 212 212 213 213 214 214 215 217 220
348 343 338 331 326 323 315 299 293 296 299 300 301 301 302 300 294 289 286 281 277 273 264 257 254 249 245 244 242 239 240 241 240 238 236 235 233 231 230 228 226 226 225 226 226 225 222 220 215 211 209 210 210 206 201 200 202 200 196 199 211 222 217 216 219 213 207 212 215 215 215 216 217 217 216 216 216 217 217 217 217 218 220 222 225
354 351 346 340 333 329 326 317 299 291 298 307 303 295 294 297 295 292 291 288 283 275 264 259 256 252 248 246 243 239 237 239 240 238 235 236 234 230 228 227 225 228 231 228 225 223 222 221 218 210 203 205 209 208 204 200 199 196 192 192 200 212 212 208 212 213 212 216 221 220 219 219 220 220 219 220 221 221 221 222 221 220 222 225 229
0 358 354 348 342 335 331 326 312 295 293 299 297 292 293 294 291 289 289 287 284 276 264 258 254 253 254 252 248 244 238 236 240 240 236 233 231 228 228 228 228 231 233 230 225 225 225 225 222 217 210 207 210 211 207 203 201 197 196 196 198 204 208 206 209 214 214 218 224 226 224 221 221 221 221 221 221 222 223 223 221 221 223 226 230
5 6 4 358 352 345 338 332 321 305 293 290 290 292 297 298 293 287 284 282 279 273 263 256 253 255 256 252 247 244 238 234 237 241 237 232 230 231 231 228 226 225 225 225 226 225 224 222 219 217 215 210 211 213 211 208 204 197 197 201 199 201 206 205 209 216 217 219 227 232 229 224 222 222 222 223 224 225 226 224 223 223 223 225 229
7 9 10 10 6 0 353 345 333 319 304 293 287 285 289 295 295 287 281 279 277 272 265 261 258 257 256 252 247 243 238 235 236 236 232 230 230 231 228 225 223 222 219 220 224 226 222 218 216 216 212 208 208 209 210 212 206 197 198 201 197 197 202 203 206 216 222 224 227 232 231 225 223 224 225 227 227 228 229 227 226 226 225 226 229
7 7 10 13 14 12 7 0 350 337 323 305 292 286 284 288 292 289 282 277 273 268 264 262 261 257 254 252 248 243 239 239 239 235 231 230 231 228 224 225 226 225 223 223 225 228 224 216 216 217 212 209 208 208 213 215 205 197 203 204 196 194 199 200 202 211 221 224 225 230 228 221 221 224 227 230 232 234 233 230 226 224 224 225 229
3 4 7 9 11 13 13 10 5 356 343 325 308 298 291 286 285 286 284 276 270 267 263 259 258 259 258 251 243 239 240 242 242 238 233 230 230 227 224 226 228 227 228 229 227 226 224 219 218 218 214 212 211 211 217 216 205 204 210 208 199 197 200 204 207 211 217 221 223 229 228 218 218 223 227 231 233 233 230 224 219 218 221 225 231
360 1 5 4 5 9 12 12 11 6 358 346 328 313 303 293 286 283 282 276 268 264 262 259 257 260 258 248 239 237 241 243 242 239 235 230 227 226 224 225 228 228 227 228 229 231 231 226 225 224 219 215 214 211 209 209 208 206 204 201 201 202 203 208 215 217 218 213 212 219 223 222 223 222 222 227 231 230 226 219 214 216 221 226 230
1 359 2 2 0 2 7 10 11 10 6 359 349 331 314 303 294 286 282 279 271 263 260 259 259 263 261 249 240 241 244 243 239 238 238 234 228 225 224 224 226 227 223 220 224 230 232 229 230 229 223 215 212 209 204 205 210 208 199 194 197 203 204 208 214 221 219 210 207 210 211 214 219 214 213 220 225 224 226 223 217 217 221 224 229
3 0 2 3 359 357 1 6 7 8 8 5 2 353 334 314 302 294 287 282 276 268 262 259 256 258 260 252 243 242 243 242 239 235 236 238 233 228 227 227 224 221 220 219 221 226 229 230 230 225 219 218 217 214 210 208 209 213 211 204 199 202 208 210 215 219 207 198 202 205 201 205 213 209 206 209 211 209 214 218 215 214 218 222 230
3 3 5 6 2 357 359 3 5 7 7 5 5 4 355 336 314 302 295 289 282 275 270 264 256 253 255 254 251 246 241 239 237 234 234 238 237 232 231 232 229 224 221 220 222 226 228 229 230 224 220 223 222 217 217 215 211 210 212 210 206 207 210 210 212 208 194 190 195 197 197 202 207 205 198 192 198 206 206 207 206 204 208 220 239
4 5 6 7 7 3 1 3 5 7 8 5 4 6 5 357 339 317 307 301 292 282 277 271 260 254 252 250 250 250 245 238 234 232 231 232 234 233 233 234 233 229 225 222 223 226 227 228 230 226 220 222 222 218 219 221 219 215 212 212 212 212 212 209 205 197 191 192 191 189 194 198 198 200 194 183 192 211 205 199 201 205 221 254 272
3 4 6 7 9 9 7 6 7 9 10 8 6 7 9 7 0 349 337 325 308 293 287 282 270 259 252 246 243 244 243 238 232 227 222 222 227 229 228 227 223 219 220 221 221 222 222 225 230 225 214 211 216 218 217 219 222 221 216 213 210 206 207 209 205 196 191 192 191 189 190 187 186 201 202 188 187 197 193 196 236 251 262 276 283
4 4 7 7 7 10 13 13 14 15 14 12 11 10 11 12 10 6 1 353 337 316 296 285 273 260 253 249 243 239 237 234 228 219 213 218 227 226 221 218 211 207 211 214 215 217 217 221 227 225 213 206 211 215 213 213 218 218 216 216 213 207 203 202 201 197 191 188 191 192 190 182 186 205 209 196 185 179 179 209 233 231 234 264 293